Theta_e
311 313 313 313 312 310 311 313 314 314 314 313 316 316 316 316 315 316 316 317 317 318 318 316 317 320 321 325 330 334 342 346 345 344 344 344 342 341 340 339 334 333 329 331
312 312 312 310 311 311 312 313 314 314 314 313 315 316 316 316 315 316 316 317 317 318 318 319 317 318 323 323 325 330 337 343 346 345 345 346 345 343 341 339 339 335 328 328
312 312 311 311 312 313 313 314 315 314 314 313 314 315 315 315 314 315 315 316 316 317 317 317 318 318 321 324 324 326 330 337 344 346 347 343 345 345 345 345 344 339 338 336
312 312 311 312 312 312 314 313 314 314 314 315 313 315 315 315 315 315 316 316 317 316 317 317 318 318 320 321 323 323 323 331 338 342 342 342 343 344 344 344 344 342 342 339
313 312 311 312 313 312 313 312 313 313 314 314 315 315 315 314 315 315 316 316 316 317 316 316 317 316 317 318 321 322 322 325 332 338 341 341 343 344 340 339 338 338 337 337
313 311 312 313 312 312 313 313 313 311 313 316 316 316 315 315 316 316 316 315 315 315 316 317 317 317 318 318 319 323 325 323 328 333 338 340 339 335 335 336 337 336 337 339
314 314 313 312 313 314 313 314 316 317 317 318 317 317 316 316 316 316 315 316 317 317 316 317 317 318 319 320 319 321 324 327 328 329 334 336 336 334 331 332 332 332 332 332
316 317 314 313 314 315 315 315 317 319 319 318 316 317 317 315 315 314 316 317 317 317 318 318 318 319 320 320 319 319 321 325 327 328 330 331 330 329 328 328 327 327 328 330
314 315 313 314 315 314 316 315 315 316 317 318 317 317 317 317 317 317 318 318 318 318 318 318 317 317 318 320 321 321 321 322 326 326 326 326 322 320 323 320 317 324 324 324
316 318 316 315 314 313 314 315 319 319 321 323 320 319 319 318 317 317 318 317 315 317 318 318 317 317 316 317 319 321 322 323 323 325 325 324 319 316 316 316 319 320 321 323
315 315 317 316 317 317 316 317 318 319 321 324 324 321 319 317 317 318 317 316 315 316 317 317 317 316 317 317 316 319 321 322 322 323 323 323 323 319 320 318 317 317 318 320
315 317 319 318 317 315 316 317 319 326 327 324 325 323 317 317 317 317 316 315 315 317 318 317 316 315 315 315 315 317 316 316 319 321 319 319 321 320 319 320 323 322 319 318
315 317 321 319 317 316 318 318 319 320 320 324 325 321 315 316 315 315 316 315 315 317 317 316 315 315 315 315 315 316 318 317 316 316 315 317 320 319 319 318 319 324 320 323
314 316 318 319 319 318 321 318 317 320 324 320 319 319 316 314 314 315 316 316 316 317 315 314 314 313 312 312 312 312 312 313 316 316 316 317 316 317 318 318 320 320 323 323
313 318 315 315 314 313 313 313 313 313 315 319 316 315 313 313 315 317 316 315 315 315 313 313 312 312 311 309 310 309 309 309 308 310 313 314 312 313 315 316 318 319 320 322
313 315 314 313 310 310 311 311 311 311 312 315 314 313 313 314 314 315 315 313 312 314 313 312 310 308 308 308 308 308 308 308 307 308 308 309 311 313 314 315 315 318 319 320
311 313 313 312 310 311 313 312 312 312 312 314 316 315 315 316 316 315 314 312 311 311 312 310 309 308 306 306 306 306 306 306 306 307 306 307 308 309 311 313 315 316 317 319
311 311 311 312 311 316 314 316 315 316 316 316 317 316 315 314 312 311 311 311 311 312 310 309 308 307 305 305 305 305 305 305 305 305 305 305 306 307 309 310 311 313 316 317
309 310 312 313 314 313 313 316 316 315 315 315 316 314 313 310 309 310 309 309 309 309 309 308 306 306 304 304 305 305 305 305 305 305 305 304 304 305 305 307 309 310 311 314
309 310 313 314 317 316 313 315 313 313 316 310 309 309 309 308 309 309 308 307 306 306 306 305 305 304 304 305 305 304 304 304 304 304 304 304 303 303 304 305 306 308 309 310
312 314 314 315 318 315 314 312 312 317 316 309 308 308 308 308 307 307 306 306 306 305 304 303 303 304 304 303 302 302 302 302 303 303 303 303 302 302 303 303 304 305 307 308
316 316 316 315 316 316 309 311 313 312 309 308 308 307 307 308 307 307 306 306 305 304 303 303 303 303 302 302 301 302 302 300 300 300 300 301 302 302 302 302 303 304 305 306
316 315 315 316 315 312 309 309 308 307 308 308 307 307 306 305 306 305 305 304 303 303 301 300 301 301 300 299 300 300 299 299 299 299 300 301 300 300 300 301 303 304 305 306
311 310 313 312 311 309 308 307 307 306 306 306 306 305 305 305 305 305 305 304 302 301 300 299 299 299 299 298 298 298 297 298 299 298 299 299 299 300 301 301 301 302 303 304
310 310 311 312 309 308 307 307 306 305 305 305 304 305 304 304 305 305 304 302 301 301 299 299 299 299 298 297 297 297 297 297 298 298 298 299 299 300 300 301 301 301 302 303
309 311 312 311 308 308 308 306 305 305 304 304 303 304 304 304 305 304 304 302 301 301 298 298 298 298 296 296 296 296 296 296 297 297 298 299 299 300 301 301 302 301 301 302
Wind_Speed
2 5 8 9 5 2 1 4 8 10 10 6 11 11 12 10 8 10 8 5 7 9 8 10 10 14 20 27 29 28 24 27 26 28 27 25 30 30 27 27 30 29 30 39
3 11 10 4 5 5 5 6 9 10 11 6 10 12 10 10 11 10 9 8 9 7 8 10 11 10 14 22 29 29 27 22 27 27 28 23 27 27 27 25 28 35 39 35
9 3 5 10 6 6 6 7 5 7 4 4 7 11 10 8 8 10 12 11 10 10 12 12 11 9 11 16 22 28 33 28 23 24 22 17 16 14 21 27 29 34 34 35
8 7 10 8 9 11 11 13 12 9 6 11 2 10 11 9 11 10 11 10 11 13 11 9 10 14 12 15 15 22 33 32 27 24 22 26 30 27 31 32 29 27 28 32
3 5 8 9 15 10 9 4 5 7 9 5 10 7 12 6 11 14 15 14 12 10 11 13 13 17 19 15 15 18 22 27 27 26 30 28 25 26 18 19 20 22 22 24
12 1 4 6 3 9 3 7 3 2 5 12 15 12 8 11 12 14 11 8 9 12 12 14 17 17 19 20 15 16 20 27 27 30 31 33 29 23 18 19 20 17 17 19
9 15 10 9 12 12 7 9 7 7 8 13 9 13 14 10 13 16 12 11 12 11 11 11 12 14 20 21 20 16 18 24 27 29 31 31 30 25 24 20 18 17 17 16
7 9 7 7 13 11 8 8 9 10 8 9 1 8 6 7 10 6 4 9 9 10 9 10 12 13 17 18 18 16 19 23 23 27 29 25 22 21 22 22 18 18 16 14
4 5 2 6 11 8 12 9 8 13 6 7 9 12 9 9 6 3 6 9 11 11 12 12 12 14 14 15 16 14 16 19 21 23 19 19 21 21 18 20 21 16 16 15
3 9 5 4 2 4 7 5 4 5 8 15 8 7 7 7 7 3 7 10 16 13 13 11 11 13 14 14 14 10 8 12 17 20 18 19 22 22 21 21 18 18 17 16
5 4 10 6 6 13 7 6 4 4 3 7 12 7 3 1 1 6 6 12 14 16 15 13 12 13 12 11 13 9 5 3 5 7 7 11 14 18 15 23 21 17 16 18
4 4 8 13 9 4 5 8 4 7 5 4 6 9 1 2 3 7 16 15 16 11 13 13 11 11 13 14 15 8 11 10 5 6 10 15 14 14 19 20 14 17 19 18
3 3 4 4 5 4 8 7 1 3 2 7 7 6 6 6 16 14 14 17 14 9 8 8 9 9 11 14 16 14 12 8 8 6 5 12 18 20 21 22 22 23 23 19
3 5 11 12 7 2 3 7 6 5 4 12 13 21 20 16 14 16 14 12 11 7 6 8 9 10 13 14 15 18 20 20 18 17 18 17 13 17 19 24 26 32 27 24
4 5 9 13 15 14 15 18 17 19 19 18 21 22 20 19 12 10 9 11 13 8 7 8 9 10 13 15 14 15 16 15 15 13 18 23 22 17 16 15 18 25 28 27
11 4 6 12 12 17 20 19 19 19 19 19 20 23 15 5 7 8 9 10 12 13 9 9 11 12 12 15 16 14 18 17 15 13 12 13 14 12 13 12 9 15 22 24
7 7 6 12 7 6 10 13 14 10 10 10 12 9 5 9 9 11 13 15 16 16 12 12 13 13 18 19 19 19 20 19 17 18 18 18 17 17 16 13 11 14 15 17
9 9 5 5 4 5 4 2 3 4 7 8 10 10 8 7 11 16 17 19 17 10 12 16 15 21 24 23 21 21 23 23 21 20 20 20 20 20 19 18 17 14 13 15
14 8 3 3 4 7 1 3 1 2 5 5 7 8 9 14 18 16 10 9 10 16 19 23 25 25 27 27 25 25 25 25 24 24 23 22 22 23 22 23 23 19 18 17
7 8 5 3 3 3 3 5 3 1 8 3 4 8 13 15 12 16 17 19 22 22 25 27 29 31 29 25 25 27 29 29 29 28 27 24 24 26 27 27 26 25 24 23
5 3 7 6 5 3 2 2 2 5 3 4 8 12 16 16 15 21 21 22 22 25 29 35 34 30 27 29 29 29 31 31 30 29 29 31 32 30 28 28 29 28 27 27
3 4 3 3 3 4 1 1 3 6 10 11 14 15 17 18 20 21 21 22 23 22 28 34 26 25 30 32 32 33 28 28 32 37 38 36 30 27 27 29 30 29 29 29
2 2 1 5 2 1 2 6 7 8 12 14 16 18 18 18 18 20 20 23 20 20 25 30 33 34 31 33 31 29 33 33 36 29 29 25 26 28 29 27 27 25 29 29
2 2 3 3 3 2 8 4 7 11 14 16 17 18 18 20 21 22 23 18 16 20 22 28 31 26 29 31 34 32 33 29 29 31 28 28 29 30 30 29 30 30 30 29
3 2 3 5 2 9 2 8 13 14 15 18 19 19 19 21 22 23 22 21 17 17 28 29 25 25 28 33 31 32 30 30 28 28 28 27 28 29 28 29 29 29 31 32
2 2 2 2 6 6 14 14 17 16 19 18 19 21 20 19 22 25 22 19 18 19 29 26 27 22 31 30 30 31 30 27 27 27 26 26 25 25 25 26 28 36 43 40
Wind_Direction
54 216 218 222 209 167 209 261 275 277 278 303 283 282 279 282 289 286 289 274 287 282 290 305 296 274 260 247 243 241 230 223 209 202 201 206 212 220 224 222 220 219 223 214
195 241 233 202 197 219 233 266 271 284 278 205 276 272 269 272 278 275 284 268 263 258 282 298 309 288 263 253 245 240 235 226 219 212 205 205 212 216 220 226 223 225 229 226
224 195 173 194 203 225 231 223 233 259 314 236 278 272 261 249 248 259 264 281 281 257 279 290 298 281 281 262 247 244 241 235 229 226 207 193 182 193 203 213 214 216 219 222
246 231 222 209 230 214 246 214 242 259 264 277 231 285 264 257 250 252 264 259 254 284 285 287 283 286 265 262 265 252 246 237 227 219 216 207 197 201 209 208 212 218 224 230
206 178 186 209 233 189 261 186 251 263 264 266 247 259 276 223 247 253 257 258 265 265 288 294 290 288 292 282 267 262 254 240 229 219 212 211 210 209 205 201 205 205 219 225
257 236 253 249 175 198 285 277 270 196 252 253 258 248 262 256 258 275 265 256 277 295 300 298 292 290 286 288 274 253 243 244 230 219 215 213 214 202 197 200 204 205 214 218
242 245 245 227 261 250 239 272 276 253 230 259 280 262 263 259 255 267 293 307 310 317 313 309 305 306 301 292 289 269 248 242 229 219 212 213 213 209 200 190 191 190 193 202
258 265 209 188 215 257 229 243 255 268 260 274 219 255 264 251 276 271 355 342 334 334 341 337 324 311 309 310 303 283 265 254 237 219 211 205 204 203 201 197 192 197 198 201
211 245 276 263 273 247 258 233 271 261 260 262 251 257 264 247 252 354 354 360 354 343 332 328 331 328 315 317 307 286 273 262 243 220 205 197 197 198 195 191 191 187 189 187
285 279 254 284 239 179 227 154 210 213 269 269 248 267 259 263 266 326 335 351 345 331 319 327 324 329 336 318 305 290 273 266 247 214 199 198 198 204 203 198 187 185 188 184
328 252 247 316 253 269 244 228 229 284 238 265 280 263 122 255 266 315 342 328 330 329 321 318 322 317 311 338 327 305 277 193 239 202 209 227 219 208 207 208 196 200 194 197
352 293 255 257 269 288 256 274 258 231 230 248 285 272 7 351 352 339 320 322 320 330 332 327 327 332 331 334 331 357 53 21 2 273 257 256 253 222 219 225 223 218 208 204
295 225 262 251 241 254 257 254 213 21 48 217 257 263 164 311 324 325 323 316 315 312 339 350 358 11 27 15 4 350 353 19 5 29 339 287 261 241 242 244 242 243 223 221
118 256 245 260 293 319 288 273 249 220 240 274 253 278 287 299 312 317 328 336 331 328 342 355 358 359 0 18 9 6 13 1 329 330 329 327 327 289 255 250 243 241 237 224
222 248 256 265 265 267 265 258 259 250 254 256 276 283 291 298 305 307 311 324 333 315 334 349 350 345 346 357 348 353 347 355 354 356 318 307 314 313 297 260 253 245 245 236
161 260 253 267 268 266 267 262 259 256 257 258 270 276 299 293 284 293 307 320 315 302 303 322 329 329 324 324 321 333 326 325 330 323 306 294 299 300 289 272 272 262 250 246
209 240 256 276 282 296 264 264 242 241 245 255 262 290 309 297 300 314 311 305 295 293 286 308 318 318 319 316 318 319 307 305 307 302 299 298 299 294 296 299 294 271 263 258
230 221 225 277 288 246 57 48 100 231 254 238 266 277 300 313 307 300 298 291 291 297 307 315 317 311 311 308 301 296 297 297 293 288 287 285 282 283 283 280 274 274 269 260
214 198 202 236 232 305 195 195 198 340 288 331 297 310 310 322 315 297 340 328 306 303 307 306 303 298 301 297 292 294 294 292 288 285 283 281 281 281 278 275 274 271 270 265
151 180 207 167 244 265 112 119 45 148 264 75 341 316 318 323 300 297 316 307 300 297 298 297 297 297 291 290 293 294 294 289 283 283 282 279 279 274 273 273 269 266 262 261
146 180 212 232 252 263 87 353 283 257 28 313 301 301 302 297 287 296 298 296 295 298 304 307 299 292 290 291 292 288 290 282 281 283 281 278 280 272 270 270 265 261 258 257
191 178 195 205 237 260 65 233 290 336 298 287 298 304 300 296 298 300 298 297 298 300 307 304 288 288 288 289 288 286 281 280 280 283 280 275 268 264 268 270 264 256 252 249
228 272 298 216 296 113 227 273 289 287 288 294 298 303 305 294 289 294 294 298 299 294 308 300 289 287 290 291 289 288 283 284 283 275 271 266 271 273 266 260 264 260 250 245
178 217 257 278 154 276 299 287 263 304 298 304 299 300 300 297 296 295 299 298 285 292 307 297 291 285 294 288 289 278 282 276 277 276 271 272 273 268 263 257 255 250 247 247
301 266 259 260 294 321 204 300 315 310 302 305 306 306 300 294 291 291 298 297 289 296 303 292 290 284 282 294 285 286 280 279 275 274 274 270 266 262 258 252 247 244 243 242
222 263 252 321 337 292 301 314 313 308 312 310 308 306 302 290 289 289 294 295 279 297 300 290 291 280 288 288 287 285 282 277 274 270 266 263 263 262 259 257 256 250 246 244